WS Maaseik 1 Meer informatie WS Maaseik 1


WS Maaseik 2 Meer informatie WS Maaseik 2


Regen radar Meer informatie rain snow radar


Bezoek onze andere website:

Vorige versie
weerstation Maaseik


Bezoek ook eens deze sites:

Weerstation Geleen



Het weer levert geen direct gevaar op.    Er zijn geen waarschuwingen afgegeven.

15 daagse weersverwachting Swansea (GB)

  • Overzicht
  • Per uur
  • 15 dagen
  • Extra
  • Vergelijk
  • Kaarten
  • Dagkaart
  • Meer »
  • Info
  • Statistieken
  • Directe link
    Temp 6h Neerslag Wind  
 08:05     17:55    Daglengte: 9:50 Vandaag
13:00
15°
 
11
19:00
15°
29.1 mm
6
 08:07     17:53    Daglengte: 9:46 Morgen
01:00
13°
58.9 mm
3
07:00
13°
38.7 mm
7
13:00
13°
58.9 mm
7
19:00
13°
9.8 mm
6
 08:09     17:51    Daglengte: 9:42 Zaterdag 30 Okt
01:00
13°
53.2 mm
9
07:00
12°
67.4 mm
5
13:00
13°
74.0 mm
4
19:00
11°
79.2 mm
3
 08:10     17:49    Daglengte: 9:39 Zondag 31 Okt
01:00
12°
119.9 mm
7
06:00
12°
112.3 mm
8
Locatie info
Region: Wales
Latitude: 51.6231°N
Longitude: -3.9409°E
18 masl
Postcode: SA1 2
Temp/Neerslag /Baro Onweer/Dauwpunt
    Temp Baro 1h Neerslag Dauwpunt Wind UV Bewolking  
 08:05     17:55    Daglengte: 9:50 Vandaag
13:00
15°
1002.5 hPa
48%
13.4°
11
Windvlaag: 16.5 m/s
86%
14:00
15°
1001.8 hPa 2.5 mm
82%
13.3°
10
Windvlaag: 16.1 m/s
86%
15:00
15°
1001.0 hPa 3.7 mm
82%
13.2°
10
Windvlaag: 15.3 m/s
86%
16:00
15°
1000.4 hPa 4.2 mm
82%
13.4°
9
Windvlaag: 13.7 m/s
86%
17:00
15°
999.7 hPa 5.1 mm
82%
13.6°
9
Windvlaag: 11.7 m/s
86%
18:00
15°
999.2 hPa 6.1 mm
82%
13.6°
8
Windvlaag: 10.1 m/s
86%
19:00
15°
998.8 hPa 7.4 mm
82%
13.4°
6
Windvlaag: 8.9 m/s
86%
20:00
15°
998.1 hPa 8.8 mm
82%
13.2°
6
Windvlaag: 7.2 m/s
86%
21:00
15°
997.3 hPa 10.1 mm
82%
12.7°
7
Windvlaag: 8 m/s
86%
22:00
15°
996.4 hPa 11.1 mm
82%
13.3°
9
Windvlaag: 11.1 m/s
86%
23:00
15°
995.4 hPa 10.1 mm
82%
13.3°
7
Windvlaag: 12.7 m/s
86%
 08:07     17:53    Daglengte: 9:46 Morgen
00:00
14°
995.3 hPa 9.1 mm
82%
11.7°
6
Windvlaag: 14.9 m/s
86%
01:00
13°
994.5 hPa 9.7 mm
82%
11.5°
3
Windvlaag: -0.3 m/s
86%
02:00
13°
994.0 hPa 10.5 mm
82%
11.2°
5
Windvlaag: 5.3 m/s
86%
03:00
14°
993.2 hPa 9.7 mm
82%
11.9°
4
Windvlaag: 5.1 m/s
86%
04:00
14°
992.4 hPa
82%
11.7°
6
Windvlaag: 2 m/s
86%
05:00
14°
991.7 hPa
82%
11.4°
6
Windvlaag: -0.2 m/s
86%
06:00
14°
991.2 hPa 9.2 mm
82%
10.8°
6
Windvlaag: -0.4 m/s
86%
07:00
13°
991.3 hPa 9.4 mm
82%
9.5°
7
Windvlaag: -1.4 m/s
86%
08:00
13°
991.5 hPa 9.6 mm
82%
8.2°
7
Windvlaag: -0.9 m/s
86%
09:00
13°
992.3 hPa 9.6 mm
82%
8.2°
6
Windvlaag: -0.2 m/s
86%
10:00
12°
993.3 hPa 10.1 mm
82%
9.2°
7
Windvlaag: 2 m/s
23%
11:00
12°
994.1 hPa 10.1 mm
82%
9.2°
6
Windvlaag: 1.6 m/s
43%
12:00
12°
994.8 hPa 10.1 mm
82%
9.0°
8
Windvlaag: 1.1 m/s
72%
13:00
13°
995.3 hPa 9.3 mm
78%
9.0°
7
Windvlaag: 0.5 m/s
28%
14:00
13°
995.6 hPa
28%
9.8°
6
Windvlaag: -0.4 m/s
34%
15:00
13°
995.9 hPa
14%
10.3°
7
Windvlaag: 4.3 m/s
48%
16:00
13°
996.2 hPa
28%
9.5°
8
Windvlaag: 7.1 m/s
59%
17:00
13°
996.6 hPa
71%
9.2°
7
Windvlaag: 10.7 m/s
59%
18:00
13°
996.7 hPa 9.8 mm
80%
8.7°
6
Windvlaag: 11.7 m/s
72%
19:00
13°
996.9 hPa
81%
8.9°
6
Windvlaag: 13.3 m/s
82%
20:00
13°
996.8 hPa 10.6 mm
81%
9.8°
7
Windvlaag: 14.6 m/s
80% warningclass
21:00
13°
996.4 hPa 9.8 mm
77%
10.1°
8
Windvlaag: 16 m/s
80%
22:00
13°
996.0 hPa 10.6 mm
78%
10.2°
8
Windvlaag: 15.8 m/s
57%
23:00
13°
995.4 hPa
78%
10.3°
9
Windvlaag: 15.5 m/s
86%
 08:09     17:51    Daglengte: 9:42 Zaterdag 30 Okt
00:00
13°
995.1 hPa 10.7 mm
82%
10.0°
9
Windvlaag: 15.1 m/s
86%
01:00
13°
994.4 hPa 11.6 mm
82%
10.1°
9
Windvlaag: 13.6 m/s
86%
02:00
13°
993.8 hPa 11.2 mm
82%
10.2°
9
Windvlaag: 13.6 m/s
86%
03:00
12°
992.9 hPa 11.4 mm
82%
10.0°
9
Windvlaag: 12.5 m/s
85%
04:00
13°
991.7 hPa 11.2 mm
82%
9.4°
9
Windvlaag: 11.2 m/s
76% warningclass
05:00
12°
991.8 hPa 11.2 mm
82%
8.6°
8
Windvlaag: 8.7 m/s
66%
06:00
12°
991.8 hPa 11.5 mm
81%
9.6°
6
Windvlaag: 8.4 m/s
81%
07:00
12°
991.9 hPa 10.9 mm
79%
9.2°
5
Windvlaag: 5.6 m/s
51%
08:00
12°
992.0 hPa 11.1 mm
80%
8.9°
4
Windvlaag: 4.6 m/s
24%
09:00
12°
992.6 hPa 11.7 mm
77%
9.3°
5
Windvlaag: 5.6 m/s
22%
10:00
11°
993.5 hPa 11.9 mm
97%
10.7°
4
Windvlaag: 5.8 m/s
54%
11:00
12°
993.5 hPa 19.7 mm
100%
10.7°
3
Windvlaag: 5.9 m/s
71%
12:00
13°
993.8 hPa 19.6 mm
99%
9.1°
3
Windvlaag: 0.6 m/s
68%
13:00
13°
994.0 hPa
95%
7.9°
4
Windvlaag: -0.5 m/s
80%
14:00
13°
994.0 hPa
86%
8.9°
4
Windvlaag: -0.2 m/s
95%
15:00
13°
994.3 hPa
91%
9.3°
4
Windvlaag: -0.6 m/s
95%
16:00
13°
994.8 hPa 19.7 mm
99%
8.9°
3
Windvlaag: -0.7 m/s
91%
17:00
12°
995.6 hPa 19.7 mm
98%
8.1°
3
Windvlaag: 0.4 m/s
75%
18:00
11°
996.2 hPa 19.8 mm
100%
8.4°
3
Windvlaag: 0.2 m/s
70%
19:00
11°
996.7 hPa 20.0 mm
100%
8.2°
3
Windvlaag: 0.4 m/s
60%
20:00
11°
997.0 hPa 19.8 mm
99%
8.4°
1
Windvlaag: -0.1 m/s
78%
21:00
11°
997.0 hPa 20.0 mm
92%
8.3°
2
Windvlaag: 2 m/s
75%
22:00
11°
997.2 hPa 20.2 mm
91%
8.1°
4
Windvlaag: 3.2 m/s
73%
23:00
12°
997.3 hPa 20.0 mm
92%
9.4°
6
Windvlaag: 7.5 m/s
84%
 08:10     17:49    Daglengte: 9:39 Zondag 31 Okt
00:00
11°
997.1 hPa 20.0 mm
93%
9.0°
6
Windvlaag: 10.3 m/s
44%
01:00
12°
996.6 hPa 19.8 mm
92%
9.8°
7
Windvlaag: 10.8 m/s
54%
01:00
12°
996.1 hPa 19.7 mm
88%
9.8°
7
Windvlaag: 11.3 m/s
79%
02:00
12°
995.1 hPa 19.7 mm
76%
10.1°
8
Windvlaag: 11 m/s
100%
03:00
12°
993.6 hPa 20.2 mm
72%
10.3°
9
Windvlaag: 12.3 m/s
96%
04:00
12°
992.1 hPa 21.0 mm
30%
10.7°
11
Windvlaag: 14.5 m/s
100%
05:00
12°
990.3 hPa 14.1 mm
97%
11.6°
9
Windvlaag: 16.3 m/s
100%
06:00
12°
989.0 hPa 17.6 mm
100%
11.4°
8
Windvlaag: 16.5 m/s
99%
07:00
12°
988.3 hPa 29.1 mm
100%
11.0°
7
Windvlaag: 9 m/s
98%
08:00
13°
988.1 hPa 26.2 mm
100%
11.1°
6
Windvlaag: 7.6 m/s
100%
09:00
13°
986.9 hPa 26.1 mm
100%
10.7°
6
Windvlaag: 6.9 m/s
100%
10:00
13°
986.2 hPa 26.6 mm
100%
9.9°
6
Windvlaag: 8.9 m/s
98%
11:00
12°
985.9 hPa 27.3 mm
100%
8.2°
5
Windvlaag: 7.7 m/s
93%
Temp/Neerslag /Baro Onweer/Dauwpunt
    Temp Baro Neerslag Dauwpunt Wind Bewolking  
 08:05     17:55    Daglengte: 9:50 Vandaag
13:00
15°
1002.5 hPa   13.4°
11
86%
16:00
15°
1000.4 hPa 10.4 mm 13.4°
9
86%
19:00
15°
998.8 hPa 18.6 mm 13.4°
6
86%
22:00
15°
996.4 hPa 30.0 mm 13.3°
9
86%
 08:07     17:53    Daglengte: 9:46 Morgen
01:00
13°
994.5 hPa 28.9 mm 11.5°
3
86%
04:00
14°
992.4 hPa 20.2 mm 11.7°
6
86%
07:00
13°
991.3 hPa 18.5 mm 9.5°
7
86%
10:00
12°
993.3 hPa 29.4 mm 9.2°
7
23%
13:00
13°
995.3 hPa 29.5 mm 9.0°
7
28%
16:00
13°
996.2 hPa   9.5°
8
59%
19:00
13°
996.9 hPa 9.8 mm 8.9°
6
82%
22:00
13°
996.0 hPa 31.0 mm 10.2°
8
57%
 08:09     17:51    Daglengte: 9:42 Zaterdag 30 Okt
01:00
13°
994.4 hPa 22.2 mm 10.1°
9
86%
04:00
13°
991.7 hPa 33.8 mm 9.4°
9
76% warningclass
07:00
12°
991.9 hPa 33.6 mm 9.2°
5
51%
10:00
11°
993.5 hPa 34.7 mm 10.7°
4
54%
13:00
13°
994.0 hPa 39.3 mm 7.9°
4
80%
16:00
13°
994.8 hPa 19.7 mm 8.9°
3
91%
19:00
11°
996.7 hPa 59.5 mm 8.2°
3
60%
22:00
11°
997.2 hPa 60.1 mm 8.1°
4
73%
 08:10     17:49    Daglengte: 9:39 Zondag 31 Okt
01:00
12°
996.6 hPa 59.8 mm 9.8°
7
54%
03:00
12°
993.6 hPa 59.6 mm 10.3°
9
96%
06:00
12°
989.0 hPa 52.6 mm 11.4°
8
99%
09:00
13°
986.9 hPa 81.4 mm 10.7°
6
100%
12:00
12°
986.1 hPa 80.1 mm 7.0°
6
86%
15:00
12°
993.7 hPa 81.3 mm 4.7°
7
0%
18:00
10°
994.3 hPa 81.6 mm 4.0°
7
0%
21:00
10°
994.3 hPa 84.0 mm 5.5°
9
1%
 08:12     17:47    Daglengte: 9:35 Maandag 01 Nov
00:00
10°
993.5 hPa 86.1 mm 4.2°
9
1%
03:00
11°
992.6 hPa 87.8 mm 5.1°
11
0%
06:00
10°
993.9 hPa 88.7 mm 5.3°
11
1%
09:00
11°
997.0 hPa 88.9 mm 4.5°
12
1%
12:00
12°
999.3 hPa 89.0 mm 5.6°
12
0%
15:00
11°
1000.0 hPa 89.3 mm 4.9°
11
1%
18:00
11°
1000.2 hPa 89.9 mm 5.6°
10
1%
21:00
11°
999.2 hPa 92.0 mm 6.2°
9
1%
 08:14     17:45    Daglengte: 9:31 Dinsdag 02 Nov
00:00
11°
996.2 hPa 93.5 mm 6.5°
9
1%
03:00
10°
Voelt als: 6.2°
993.8 hPa 97.3 mm 5.2°
9
1%
06:00
Voelt als: 5.9°
992.1 hPa 98.4 mm 3.2°
6
1%
09:00
10°
Voelt als: 7.6°
992.0 hPa 98.9 mm 4.2°
4
1%
12:00
11°
991.2 hPa 99.6 mm 4.8°
3
1%
15:00
10°
Voelt als: 6.8°
991.7 hPa 100.5 mm 5.1°
6
1%
18:00
Voelt als: 5.4°
993.7 hPa 100.6 mm 4.5°
4
1%
21:00
Voelt als: 6.2°
995.2 hPa 101.2 mm 5.1°
5
1%
 08:16     17:44    Daglengte: 9:28 Woensdag 03 Nov
00:00
Voelt als: 5.0°
997.4 hPa 101.6 mm 4.4°
7
1%
03:00
Voelt als: 5.7°
1000.1 hPa 101.6 mm 4.6°
5
1%
06:00
Voelt als: 5.2°
1003.3 hPa 101.7 mm 4.0°
8
1%
09:00
Voelt als: 5.5°
1006.5 hPa 101.8 mm 3.0°
7
1%
12:00
10°
Voelt als: 6.0°
1008.4 hPa 102.0 mm 3.1°
8
1%
15:00
Voelt als: 5.8°
1009.3 hPa 102.4 mm 3.9°
9
0%
18:00
Voelt als: 5.0°
1011.4 hPa 102.6 mm 3.7°
6
1%
21:00
Voelt als: 4.7°
1013.7 hPa 102.8 mm 3.1°
5
1%
 08:18     17:42    Daglengte: 9:24 Donderdag 04 Nov
00:00
Voelt als: 5.3°
1015.0 hPa 103.0 mm 3.1°
4
1%
03:00
Voelt als: 5.2°
1016.3 hPa 103.2 mm 3.0°
5
1%
06:00
Voelt als: 5.4°
1017.8 hPa 103.5 mm 3.0°
4
1%
09:00
Voelt als: 5.2°
1019.8 hPa   3.0°
5
1%
12:00
10°
Voelt als: 7.1°
1019.9 hPa 207.3 mm 3.0°
6
1%
18:00
Voelt als: 6.2°
1019.5 hPa 207.5 mm 2.6°
5
1%
 08:19     17:40    Daglengte: 9:21 Vrijdag 05 Nov
00:00
11°
1018.4 hPa 207.7 mm 6.7°
8
1%
06:00
12°
1018.3 hPa 208.1 mm 8.9°
8
1%
12:00
13°
1020.3 hPa 211.1 mm 9.6°
7
1%
18:00
12°
1021.8 hPa 212.5 mm 8.3°
5
1%
 08:21     17:38    Daglengte: 9:17 Zaterdag 06 Nov
00:00
12°
1022.5 hPa 213.1 mm 7.8°
5
1%
06:00
12°
1021.0 hPa 213.5 mm 8.6°
8
1%
12:00
13°
1020.1 hPa 214.1 mm 10.6°
11
1%
18:00
13°
1018.2 hPa 215.0 mm 11.0°
10
1%
 08:23     17:37    Daglengte: 9:14 Zondag 07 Nov
00:00
13°
1016.6 hPa 220.7 mm 11.7°
11
1%
06:00
Voelt als: 7.0°
1014.5 hPa 0.8 mm 4.9°
3
76%
12:00
10°
1014.6 hPa 0.9 mm 6.1°
3
72%
18:00
Voelt als: 7.7°
1014.8 hPa 0.6 mm 5.0°
3
64%
 08:25     17:35    Daglengte: 9:10 Maandag 08 Nov
00:00
Voelt als: 7.1°
1016.0 hPa 0.8 mm 4.5°
3
62%
06:00
Voelt als: 6.5°
1016.6 hPa 0.6 mm 4.1°
3
62%
12:00
10°
Voelt als: 8.5°
1017.9 hPa 0.8 mm 5.2°
3
66%
18:00
Voelt als: 8.0°
1018.2 hPa 0.6 mm 5.1°
2
60%
 08:26     17:34    Daglengte: 9:08 Dinsdag 09 Nov
00:00
Voelt als: 7.4°
1018.8 hPa 1.0 mm 5.1°
2
67%
06:00
Voelt als: 6.9°
1018.7 hPa 1.3 mm 4.8°
3
63%
12:00
10°
Voelt als: 8.2°
1020.9 hPa 0.6 mm 4.9°
3
63%
18:00
Voelt als: 7.7°
1020.9 hPa 0.8 mm 4.9°
3
63%
 08:28     17:32    Daglengte: 9:04 Woensdag 10 Nov
00:00
Voelt als: 7.4°
1021.1 hPa 1.2 mm 5.2°
3
67%
06:00
Voelt als: 7.1°
1020.7 hPa 0.4 mm 5.2°
3
59%
12:00
10°
1021.1 hPa 0.3 mm 6.4°
3
63%
18:00
10°
Voelt als: 8.2°
1020.3 hPa 0.4 mm 6.3°
3
60%
 08:30     17:31    Daglengte: 9:01 Donderdag 11 Nov
00:00
Voelt als: 7.6°
1020.3 hPa 0.8 mm 5.7°
3
58%
06:00
Voelt als: 7.3°
1019.6 hPa 0.5 mm 5.4°
2
59%
12:00
10°
1019.8 hPa 0.5 mm 6.1°
3
59%
18:00
Voelt als: 8.0°
1019.5 hPa 0.3 mm 4.7°
2
47%
 08:32     17:29    Daglengte: 8:57 Vrijdag 12 Nov
00:00
Voelt als: 7.3°
1020.0 hPa 0.2 mm 4.1°
2
50%
06:00
Voelt als: 7.1°
1019.5 hPa 0.1 mm 4.4°
2
52%
  CAPE Lifted Index Hail Supercell Tornado SRH 3km CL BTM PRES CL TOP PRES Swiss DWD icon SMHI TS
 08:05     17:55    Daglengte: 9:50 Vandaag
13:00 2 J/kg 1.0 K 0 % 0 % 0 % 0 m²/s² 0 0 1.03 61
14:00 3 J/kg 1.1 K 0 % 0 % 0 % 0 m²/s² 0 0 1.1 61
15:00 8 J/kg 1.7 K 0 % 0 % 0 % 0 m²/s² 0 0 1.79 61
16:00 13 J/kg 1.7 K 0 % 0 % 0 % 0 m²/s² 0 0 1.73 61
17:00 46 J/kg 2.3 K 0 % 0 % 0 % 0 m²/s² 0 0 2.39 80
18:00 69 J/kg 2.9 K 0 % 0 % 0 % 0 m²/s² 0 0 2.93 80
19:00 21 J/kg 3.0 K 0 % 0 % 0 % 0 m²/s² 0 0 3.12 80
20:00 3 J/kg 3.5 K 0 % 0 % 0 % 0 m²/s² 0 0 3.59 80
21:00 4 J/kg 3.2 K 0 % 0 % 0 % 0 m²/s² 0 0 3.32 63
22:00 21 J/kg 3.1 K 0 % 0 % 0 % 0 m²/s² 0 0 3.28 63
23:00 25 J/kg 2.7 K 0 % 0 % 0 % 0 m²/s² 0 0 2.82 63
 08:07     17:53    Daglengte: 9:46 Morgen
00:00 0 J/kg 1.2 K 0 % 0 % 0 % 0 m²/s² 0 0 1.29 61
01:00 57 J/kg -0.3 K 0 % 0 % 0 % 0 m²/s² 0 0 0.12 61
02:00 219 J/kg -0.3 K 0 % 0 % 0 % 0 m²/s² 0 0 0.21 63
03:00 151 J/kg -0.4 K 0 % 0 % 0 % 0 m²/s² 0 0 0.8 63
04:00 283 J/kg -0.8 K 0 % 0 % 0 % 0 m²/s² 0 0 0.25 80
05:00 282 J/kg -0.1 K 0 % 0 % 0 % 0 m²/s² 0 0 0.56 80
06:00 162 J/kg 0.0 K 0 % 0 % 0 % 0 m²/s² 0 0 0.54 80
07:00 275 J/kg -1.1 K 0 % 0 % 0 % 0 m²/s² 0 0 -0.38 80
08:00 362 J/kg -1.6 K 0 % 0 % 0 % 0 m²/s² 0 0 -0.85 80
09:00 378 J/kg -1.4 K 0 % 0 % 0 % 0 m²/s² 0 0 -0.17 80
10:00 25 J/kg 3.1 K 0 % 0 % 0 % 0 m²/s² 0 0 3.82 80
11:00 3 J/kg 4.1 K 0 % 0 % 0 % 0 m²/s² 0 0 4.58 80
12:00 1 J/kg 5.1 K 0 % 0 % 0 % 0 m²/s² 0 0 6.84 80
13:00 13 J/kg 3.3 K 0 % 0 % 0 % 0 m²/s² 0 0 7.68 80
14:00 85 J/kg 1.6 K 0 % 0 % 0 % 0 m²/s² 0 0 3.01 3
15:00 451 J/kg -1.5 K 0 % 0 % 0 % 0 m²/s² 0 0 -0.63 3
16:00 583 J/kg -2.1 K 0 % 0 % 0 % 0 m²/s² 0 0 -1.05 3
17:00 610 J/kg -2.5 K 0 % 0 % 0 % 0 m²/s² 0 0 -0.76 3
18:00 261 J/kg -0.9 K 0 % 0 % 0 % 0 m²/s² 0 0 1.5 80
19:00 222 J/kg -0.6 K 0 % 0 % 0 % 0 m²/s² 0 0 0.66 80
20:00 164 J/kg -0.3 K 0 % 0 % 0 % 0 m²/s² 0 0 0.36 95
21:00 164 J/kg -0.1 K 0 % 0 % 0 % 0 m²/s² 0 0 0.26 80
22:00 99 J/kg 0.6 K 0 % 0 % 0 % 0 m²/s² 0 0 0.84 3
23:00 206 J/kg -0.5 K 0 % 0 % 0 % 0 m²/s² 0 0 0.61 3
 08:09     17:51    Daglengte: 9:42 Zaterdag 30 Okt
00:00 140 J/kg 0.2 K 0 % 0 % 0 % 0 m²/s² 0 0 1.61 80
01:00 130 J/kg 0.7 K 0 % 0 % 0 % 0 m²/s² 0 0 1.87 80
02:00 148 J/kg 0.6 K 0 % 0 % 0 % 0 m²/s² 0 0 1.92 80
03:00 80 J/kg 1.2 K 0 % 0 % 0 % 0 m²/s² 0 0 2.4 80
04:00 41 J/kg 2.1 K 0 % 0 % 0 % 0 m²/s² 0 0 2.88 95
05:00 109 J/kg 1.8 K 0 % 0 % 0 % 0 m²/s² 0 0 2.22 80
06:00 110 J/kg 1.2 K 0 % 0 % 0 % 0 m²/s² 0 0 1.68 80
07:00 29 J/kg 1.4 K 0 % 0 % 0 % 0 m²/s² 0 0 1.82 80
08:00 21 J/kg 2.3 K 0 % 0 % 0 % 0 m²/s² 0 0 2.63 80
09:00 53 J/kg 2.9 K 0 % 0 % 0 % 0 m²/s² 0 0 3.17 2
10:00 72 J/kg 2.9 K 0 % 0 % 0 % 0 m²/s² 0 0 3.23 2
11:00 216 J/kg 1.9 K 0 % 0 % 0 % 0 m²/s² 0 0 4.15 80
12:00 196 J/kg 2.5 K 0 % 0 % 0 % 0 m²/s² 0 0 6.79 3
13:00 146 J/kg 3.2 K 0 % 0 % 0 % 0 m²/s² 0 0 7.58 3
14:00 204 J/kg 2.2 K 0 % 0 % 0 % 0 m²/s² 0 0 5.59 3
15:00 245 J/kg 1.7 K 0 % 0 % 0 % 0 m²/s² 0 0 5.96 3
16:00 242 J/kg 1.7 K 0 % 0 % 0 % 0 m²/s² 0 0 6.41 3
17:00 231 J/kg 1.7 K 0 % 0 % 0 % 0 m²/s² 0 0 6.92 3
18:00 96 J/kg 3.1 K 0 % 0 % 0 % 0 m²/s² 0 0 8.47 80
19:00 83 J/kg 3.1 K 0 % 0 % 0 % 0 m²/s² 0 0 8.62 80
20:00 113 J/kg 2.4 K 0 % 0 % 0 % 0 m²/s² 0 0 7.62 80
21:00 113 J/kg 1.9 K 0 % 0 % 0 % 0 m²/s² 0 0 6.37 80
22:00 113 J/kg 1.7 K 0 % 0 % 0 % 0 m²/s² 0 0 4.58 80
23:00 184 J/kg 1.4 K 0 % 0 % 0 % 0 m²/s² 0 0 3.77 80
 08:10     17:49    Daglengte: 9:39 Zondag 31 Okt
00:00 120 J/kg 2.5 K 0 % 0 % 0 % 0 m²/s² 0 0 4.63 80
01:00 108 J/kg 1.7 K 0 % 0 % 0 % 0 m²/s² 0 0 4.55 80
01:00 71 J/kg 1.7 K 0 % 0 % 0 % 0 m²/s² 0 0 3.8 80
02:00 70 J/kg 1.0 K 0 % 0 % 0 % 0 m²/s² 0 0 1.81 3
03:00 60 J/kg 0.8 K 0 % 0 % 0 % 0 m²/s² 0 0 1.01 3
04:00 95 J/kg 1.3 K 0 % 0 % 0 % 0 m²/s² 0 0 1.45 3
05:00 39 J/kg 0.3 K 0 % 0 % 0 % 0 m²/s² 0 0 0.45 3
06:00 51 J/kg 1.5 K 0 % 0 % 0 % 0 m²/s² 0 0 1.92 63
07:00 52 J/kg 3.0 K 0 % 0 % 0 % 0 m²/s² 0 0 3.45 63
08:00 107 J/kg 2.2 K 0 % 0 % 0 % 0 m²/s² 0 0 2.56 61
09:00 131 J/kg 1.2 K 0 % 0 % 0 % 0 m²/s² 0 0 1.8 61
10:00 118 J/kg 1.5 K 0 % 0 % 0 % 0 m²/s² 0 0 2.1 61
11:00 204 J/kg 1.4 K 0 % 0 % 0 % 0 m²/s² 0 0 3.17 63
Temp Baro Wind Neerslag
  EWN Forecast EWN WRFDA DWD ICON FMI HIRLAM MET Norway GFS
 08:05     17:55    Daglengte: 9:50 Vandaag
13:00 15.4° 1002.5 hPa 10.8 m/s 0.0 mm 14.3° 1001.3 hPa 9.8 m/s 4.6 mm 15.9° 1002.3 hPa 8.3 m/s -1.4 mm 15.3° 1003.3 hPa 11.1 m/s 0.0 mm 15.2° 1001.7 hPa 11.8 m/s
16:00 15.1° 1000.4 hPa 9.3 m/s 10.4 mm 14.4° 999.5 hPa 8.8 m/s 25.6 mm 15.3° 999.9 hPa 9.0 m/s 3.1 mm 15.1° 1001.3 hPa 9.4 m/s 0.0 mm 14.8° 1000.3 hPa 7.8 m/s
19:00 14.8° 998.8 hPa 6.4 m/s 18.6 mm 13.4° 999.1 hPa 2.4 m/s 73.3 mm 15.2° 998.7 hPa 6.1 m/s 2.0 mm 15.0° 999.2 hPa 8.3 m/s 0.0 mm 12.9° 999.4 hPa 1.4 m/s
22:00 14.8° 996.4 hPa 8.6 m/s 30.0 mm 12.8° 997.5 hPa 2.7 m/s 96.8 mm 14.1° 997.6 hPa 2.6 m/s 8.3 mm 15.1° 996.2 hPa 10.5 m/s 0.0 mm 12.1° 998.2 hPa 1.1 m/s
 08:07     17:53    Daglengte: 9:46 Morgen
01:00 13.4° 994.5 hPa 3.3 m/s 28.9 mm 13.9° 993.3 hPa 6.7 m/s 113.1 mm 13.0° 994.7 hPa 1.7 m/s 10.1 mm 15.2° 993.1 hPa 10.5 m/s 0.0 mm 11.7° 995.3 hPa 2.6 m/s
04:00 14.1° 992.4 hPa 5.8 m/s 20.2 mm 14.1° 991.2 hPa 9.4 m/s 124.6 mm 14.2° 992.7 hPa 5.7 m/s 7.0 mm 15.1° 991.0 hPa 8.8 m/s 0.0 mm 13.7° 992.8 hPa 6.2 m/s
07:00 13.2° 991.3 hPa 7.1 m/s 18.5 mm 13.1° 990.1 hPa 5.9 m/s 126.5 mm 13.9° 991.5 hPa 5.9 m/s 3.9 mm 13.3° 991.1 hPa 15.1 m/s 0.0 mm 13.5° 991.9 hPa 9.4 m/s
10:00 12.2° 993.3 hPa 7.1 m/s 29.4 mm 10.2° 992.2 hPa 10.5 m/s 131.3 mm 13.3° 993.1 hPa 3.3 m/s 3.1 mm 12.4° 993.6 hPa 12.9 m/s 0.0 mm 12.3° 991.6 hPa 11.6 m/s
13:00 12.7° 995.3 hPa 6.9 m/s 29.5 mm 10.7° 995.9 hPa 4.1 m/s 136.0 mm 13.1° 995.0 hPa 6.0 m/s 2.7 mm 13.3° 995.0 hPa 11.8 m/s 0.0 mm 11.3° 996.5 hPa 7.8 m/s
16:00 13.5° 996.2 hPa 7.7 m/s 0.0 mm 12.6° 995.7 hPa 8.5 m/s 138.2 mm 13.2° 996.2 hPa 5.1 m/s 0.0 mm 13.5° 995.7 hPa 8.2 m/s 0.0 mm 12.6° 996.9 hPa 8.4 m/s
19:00 12.9° 996.9 hPa 6.4 m/s 9.8 mm 11.4° 996.2 hPa 7.6 m/s 141.8 mm 12.2° 997.0 hPa 5.5 m/s 0.9 mm 13.1° 997.0 hPa 5.4 m/s 0.0 mm 11.9° 997.1 hPa 7.5 m/s
22:00 12.5° 996.0 hPa 8.0 m/s 31.0 mm 10.6° 995.4 hPa 6.5 m/s 143.5 mm 12.1° 995.8 hPa 7.5 m/s 2.0 mm 12.8° 996.0 hPa 6.8 m/s 0.0 mm 11.8° 996.4 hPa 9.8 m/s
 08:09     17:51    Daglengte: 9:42 Zaterdag 30 Okt
01:00 12.8° 994.4 hPa 8.9 m/s 22.2 mm 11.0° 994.6 hPa 8.1 m/s 146.8 mm 12.0° 994.5 hPa 8.0 m/s 2.2 mm 13.1° 993.7 hPa 9.0 m/s 0.0 mm 11.5° 995.7 hPa 7.1 m/s
04:00 12.7° 991.7 hPa 9.1 m/s 33.8 mm 10.9° 992.6 hPa 6.3 m/s 148.0 mm 12.0° 992.5 hPa 7.0 m/s 5.8 mm 13.3° 986.5 hPa 21.1 m/s 0.0 mm 11.5° 994.1 hPa 6.5 m/s
07:00 11.8° 991.9 hPa 5.0 m/s 33.6 mm 10.3° 992.3 hPa 7.2 m/s 150.7 mm 11.0° 993.1 hPa 3.7 m/s 2.8 mm 12.5° 990.7 hPa 7.4 m/s 0.0 mm 10.3° 993.6 hPa 5.0 m/s
10:00 11.3° 993.5 hPa 3.7 m/s 34.7 mm 10.1° 993.3 hPa 2.2 m/s 166.7 mm 11.3° 995.3 hPa 3.4 m/s 1.1 mm 10.5° 994.7 hPa 1.5 m/s
13:00 13.0° 994.0 hPa 3.8 m/s 39.3 mm 13.1° 993.8 hPa 3.8 m/s 175.6 mm 12.7° 996.1 hPa 4.6 m/s 0.5 mm 12.4° 995.6 hPa 5.4 m/s
16:00 12.6° 994.8 hPa 3.4 m/s 19.7 mm 12.6° 994.5 hPa 3.2 m/s 176.1 mm 12.5° 997.0 hPa 4.4 m/s 0.2 mm 12.1° 996.6 hPa 4.4 m/s
19:00 10.8° 996.7 hPa 2.5 m/s 59.5 mm 8.2° 996.6 hPa 2.5 m/s 176.4 mm 11.0° 998.1 hPa 3.1 m/s 1.0 mm 10.6° 998.4 hPa 3.8 m/s
22:00 11.4° 997.2 hPa 4.0 m/s 60.1 mm 11.2° 996.7 hPa 4.3 m/s 176.4 mm 10.8° 998.4 hPa 2.5 m/s 1.9 mm 10.0° 998.9 hPa 5.0 m/s
 08:10     17:49    Daglengte: 9:39 Zondag 31 Okt
01:00 11.5° 996.6 hPa 6.7 m/s 59.8 mm 11.3° 995.3 hPa 6.9 m/s 176.5 mm 11.1° 997.4 hPa 3.6 m/s 1.5 mm 10.7° 997.3 hPa 7.3 m/s
03:00 11.9° 993.6 hPa 8.8 m/s 59.6 mm 12.0° 991.6 hPa 9.9 m/s 177.1 mm 11.1° 994.2 hPa 3.9 m/s 0.3 mm 11.9° 993.5 hPa 11.7 m/s
06:00 12.1° 989.0 hPa 8.0 m/s 52.6 mm 11.6° 989.0 hPa 5.8 m/s 201.7 mm 12.0° 989.9 hPa 6.7 m/s 2.9 mm 11.3° 991.0 hPa 8.0 m/s
09:00 12.7° 986.9 hPa 5.5 m/s 81.4 mm 11.1° 990.9 hPa 3.4 m/s 225.8 mm 13.1° 986.0 hPa 6.1 m/s 9.2 mm 11.3° 992.8 hPa 5.3 m/s
12:00 12.4° 986.1 hPa 5.9 m/s 80.1 mm 12.0° 992.0 hPa 5.5 m/s 227.7 mm 12.5° 984.6 hPa 6.0 m/s 6.3 mm 11.6° 993.1 hPa 5.8 m/s
15:00 11.7° 993.7 hPa 7.0 m/s 81.3 mm 11.7° 993.7 hPa 7.0 m/s 81.3 mm
18:00 10.3° 994.3 hPa 6.7 m/s 81.6 mm 10.3° 994.3 hPa 6.7 m/s 81.6 mm
21:00 10.5° 994.3 hPa 8.6 m/s 84.0 mm 10.5° 994.3 hPa 8.6 m/s 84.0 mm
 08:12     17:47    Daglengte: 9:35 Maandag 01 Nov
00:00 10.2° 993.5 hPa 8.7 m/s 86.1 mm 10.2° 993.4 hPa 8.7 m/s 86.1 mm
03:00 10.7° 992.6 hPa 11.1 m/s 87.8 mm 10.7° 992.6 hPa 11.1 m/s 87.8 mm
06:00 10.4° 993.9 hPa 10.9 m/s 88.7 mm 10.4° 993.9 hPa 10.9 m/s 88.7 mm
09:00 10.8° 997.0 hPa 12.1 m/s 88.9 mm 10.8° 997.0 hPa 12.1 m/s 88.9 mm
12:00 11.9° 999.3 hPa 11.5 m/s 89.0 mm 11.9° 999.3 hPa 11.5 m/s 89.0 mm
15:00 11.4° 1000.0 hPa 10.6 m/s 89.3 mm 11.4° 1000.0 hPa 10.6 m/s 89.4 mm
18:00 10.8° 1000.2 hPa 9.8 m/s 89.9 mm 10.8° 1000.2 hPa 9.8 m/s 89.9 mm
21:00 10.6° 999.2 hPa 8.5 m/s 92.0 mm 10.6° 999.2 hPa 8.5 m/s 92.0 mm
 08:14     17:45    Daglengte: 9:31 Dinsdag 02 Nov
00:00 11.1° 996.2 hPa 8.6 m/s 93.5 mm 11.1° 996.2 hPa 8.6 m/s 93.5 mm
03:00 9.8° 993.8 hPa 8.6 m/s 97.3 mm 9.8° 993.8 hPa 8.6 m/s 97.3 mm
06:00 9.0° 992.1 hPa 6.2 m/s 98.4 mm 9.0° 992.1 hPa 6.2 m/s 98.4 mm
09:00 9.7° 992.0 hPa 4.2 m/s 98.9 mm 9.7° 992.0 hPa 4.2 m/s 98.9 mm
12:00 10.8° 991.2 hPa 3.4 m/s 99.6 mm 10.8° 991.2 hPa 3.4 m/s 99.6 mm
15:00 9.6° 991.7 hPa 5.7 m/s 100.5 mm 9.6° 991.7 hPa 5.7 m/s 100.5 mm
18:00 7.9° 993.7 hPa 4.0 m/s 100.6 mm 7.9° 993.7 hPa 4.0 m/s 100.6 mm
21:00 9.0° 995.2 hPa 5.5 m/s 101.2 mm 9.0° 995.2 hPa 5.5 m/s 101.2 mm
 08:16     17:44    Daglengte: 9:28 Woensdag 03 Nov
00:00 8.4° 997.4 hPa 6.7 m/s 101.6 mm 8.4° 997.4 hPa 6.7 m/s 101.6 mm
03:00 8.6° 1000.1 hPa 5.3 m/s 101.6 mm 8.6° 1000.1 hPa 5.3 m/s 101.6 mm
06:00 8.9° 1003.3 hPa 8.1 m/s 101.7 mm 8.9° 1003.3 hPa 8.1 m/s 101.7 mm
09:00 9.0° 1006.5 hPa 7.4 m/s 101.8 mm 9.0° 1006.5 hPa 7.4 m/s 101.8 mm
12:00 9.6° 1008.4 hPa 8.4 m/s 102.0 mm 9.6° 1008.4 hPa 8.4 m/s 102.0 mm
15:00 9.4° 1009.3 hPa 8.5 m/s 102.4 mm 9.4° 1009.3 hPa 8.5 m/s 102.4 mm
18:00 8.4° 1011.4 hPa 6.4 m/s 102.6 mm 8.4° 1011.4 hPa 6.4 m/s 102.6 mm
21:00 7.6° 1013.7 hPa 4.8 m/s 102.8 mm 7.6° 1013.7 hPa 4.8 m/s 102.8 mm
 08:18     17:42    Daglengte: 9:24 Donderdag 04 Nov
00:00 8.0° 1015.0 hPa 4.3 m/s 103.0 mm 8.0° 1015.0 hPa 4.3 m/s 103.0 mm
03:00 8.1° 1016.3 hPa 4.9 m/s 103.2 mm 8.1° 1016.3 hPa 4.9 m/s 103.2 mm
06:00 7.9° 1017.8 hPa 4.0 m/s 103.5 mm 7.9° 1017.8 hPa 4.0 m/s 103.5 mm
09:00 8.1° 1019.8 hPa 5.0 m/s 103.6 mm 8.1° 1019.8 hPa 5.0 m/s 103.6 mm
12:00 9.9° 1019.9 hPa 5.9 m/s 103.7 mm 9.9° 1019.9 hPa 5.9 m/s 103.7 mm
18:00 9.0° 1019.5 hPa 5.1 m/s 103.7 mm 9.0° 1019.5 hPa 5.1 m/s 103.7 mm
 08:19     17:40    Daglengte: 9:21 Vrijdag 05 Nov
00:00 11.5° 1018.4 hPa 8.2 m/s 103.9 mm 11.5° 1018.4 hPa 8.2 m/s 103.9 mm
06:00 12.0° 1018.3 hPa 8.1 m/s 104.2 mm 12.0° 1018.3 hPa 8.1 m/s 104.2 mm
12:00 13.1° 1020.3 hPa 6.8 m/s 106.0 mm 13.1° 1020.3 hPa 6.8 m/s 106.0 mm
18:00 11.6° 1021.8 hPa 5.0 m/s 106.3 mm 11.6° 1021.8 hPa 5.0 m/s 106.3 mm
 08:21     17:38    Daglengte: 9:17 Zaterdag 06 Nov
00:00 11.9° 1022.5 hPa 5.5 m/s 106.6 mm 11.9° 1022.5 hPa 5.5 m/s 106.6 mm
06:00 12.5° 1021.0 hPa 7.6 m/s 106.8 mm 12.5° 1021.0 hPa 7.6 m/s 106.8 mm
12:00 13.4° 1020.1 hPa 11.4 m/s 107.2 mm 13.4° 1020.1 hPa 11.4 m/s 107.2 mm
18:00 13.4° 1018.2 hPa 10.4 m/s 107.6 mm 13.4° 1018.2 hPa 10.4 m/s 107.6 mm
 08:23     17:37    Daglengte: 9:14 Zondag 07 Nov
00:00 13.3° 1016.6 hPa 11.3 m/s 111.9 mm 13.3° 1016.6 hPa 11.3 m/s 111.9 mm
06:00 8.9° 1014.5 hPa 3.4 m/s 0.8 mm
12:00 10.3° 1014.6 hPa 3.3 m/s 0.9 mm
18:00 9.3° 1014.8 hPa 3.0 m/s 0.6 mm
 08:25     17:35    Daglengte: 9:10 Maandag 08 Nov
00:00 8.6° 1016.0 hPa 2.7 m/s 0.8 mm
06:00 8.2° 1016.6 hPa 2.8 m/s 0.6 mm
12:00 9.8° 1017.9 hPa 2.7 m/s 0.8 mm
18:00 9.2° 1018.2 hPa 2.3 m/s 0.6 mm
 08:26     17:34    Daglengte: 9:08 Dinsdag 09 Nov
00:00 8.7° 1018.8 hPa 2.3 m/s 1.0 mm
06:00 8.5° 1018.7 hPa 2.8 m/s 1.3 mm
12:00 9.9° 1020.9 hPa 3.4 m/s 0.6 mm